This demonstration page uses our WeatherBlox Daily Observations layout. Learn more.

Hourly Observations for August 21, 2015

Temp ( °F °C ) Dew Point ( °F °C ) Humidity (%) Winds ( mph kmh ) Pressure ( in mb ) Visibility ( mi km ) Precip ( " mm )
12:15 am 00:15 Clear 68 20 52 11 56 56 S 16 26 29.83 1010 10 16.09344 0 0
12:35 am 00:35 Clear 68 20 52 11 56 56 S 14 22 29.83 1010 10 16.09344 0 0
12:55 am 00:55 Clear 66 19 52 11 60 60 S 17 28 29.8 1009 10 16.09344 0 0
1:15 am 01:15 Clear 66 19 52 11 60 60 S 16 26 29.83 1010 10 16.09344 0 0
1:35 am 01:35 Clear 66 19 52 11 60 60 S 15 24 29.83 1010 10 16.09344 0 0
1:55 am 01:55 Clear 64 18 52 11 64 64 S 14 22 29.85 1011 10 16.09344 0 0
2:15 am 02:15 Clear 64 18 52 11 64 64 S 10 17 29.85 1011 10 16.09344 0 0
2:35 am 02:35 Clear 64 18 52 11 64 64 S 9 15 29.85 1011 10 16.09344 0 0
2:55 am 02:55 Clear 63 17 52 11 68 68 S 9 15 29.83 1010 10 16.09344 0 0
3:15 am 03:15 Clear 63 17 52 11 68 68 S 12 19 29.83 1010 10 16.09344 0 0
3:35 am 03:35 Clear 63 17 52 11 68 68 S 12 19 29.83 1010 10 16.09344 0 0
3:55 am 03:55 Clear 63 17 52 11 68 68 S 10 17 29.83 1010 10 16.09344 0 0
4:15 am 04:15 Clear 61 16 52 11 72 72 S 9 15 29.83 1010 10 16.09344 0 0
4:35 am 04:35 Clear 61 16 52 11 72 72 S 9 15 29.83 1010 10 16.09344 0 0
4:55 am 04:55 Clear 59 15 52 11 77 77 S 13 20 29.83 1010 10 16.09344 0 0
5:15 am 05:15 Clear 61 16 52 11 72 72 S 14 22 29.83 1010 10 16.09344 0 0
5:35 am 05:35 Clear 61 16 52 11 72 72 S 12 19 29.83 1010 10 16.09344 0 0
5:55 am 05:55 Clear 59 15 52 11 77 77 S 12 19 29.83 1010 10 16.09344 0 0
6:15 am 06:15 Clear 59 15 52 11 77 77 S 10 17 29.83 1010 10 16.09344 0 0
6:35 am 06:35 Clear 59 15 54 12 82 82 S 8 13 29.83 1010 10 16.09344 0 0
6:55 am 06:55 Sunny 59 15 54 12 82 82 S 7 11 29.83 1010 10 16.09344 0 0
7:15 am 07:15 Sunny 59 15 54 12 82 82 S 7 11 29.83 1010 10 16.09344 0 0
7:35 am 07:35 Sunny 59 15 54 12 82 82 S 8 13 29.83 1010 10 16.09344 0 0
7:55 am 07:55 Sunny 61 16 54 12 77 77 S 9 15 29.85 1011 10 16.09344 0 0
8:15 am 08:15 Sunny 61 16 54 12 77 77 S 10 17 29.85 1011 10 16.09344 0 0
8:35 am 08:35 Sunny 63 17 54 12 73 73 S 12 19 29.85 1011 10 16.09344 0 0
8:55 am 08:55 Sunny 64 18 54 12 68 68 S 13 20 29.85 1011 10 16.09344 0 0
9:15 am 09:15 Sunny 66 19 54 12 64 64 S 17 28 29.83 1010 10 16.09344 0 0
9:35 am 09:35 Sunny 66 19 55 13 68 68 S 10 17 29.83 1010 10 16.09344 0 0
9:55 am 09:55 Sunny 68 20 55 13 64 64 S 10 17 29.83 1010 10 16.09344 0 0
10:15 am 10:15 Sunny 70 21 55 13 60 60 S 14 22 29.8 1009 10 16.09344 0 0
10:35 am 10:35 Sunny 70 21 55 13 60 60 S 14 22 29.8 1009 10 16.09344 0 0
10:55 am 10:55 Sunny 72 22 55 13 57 57 S 15 24 29.77 1008 10 16.09344 0 0
11:15 am 11:15 Sunny 73 23 55 13 53 53 S 14 22 29.77 1008 10 16.09344 0 0
11:35 am 11:35 Sunny 75 24 57 14 54 54 S 15 24 29.77 1008 10 16.09344 0 0
11:55 am 11:55 Sunny 75 24 59 15 57 57 S 13 20 29.77 1008 10 16.09344 0 0
12:15 pm 12:15 Sunny 77 25 59 15 54 54 S 16 26 29.77 1008 10 16.09344 0 0
12:35 pm 12:35 Sunny 77 25 59 15 54 54 S 17 28 29.77 1008 10 16.09344 0 0
12:55 pm 12:55 Sunny 79 26 59 15 51 51 S 16 26 29.74 1007 10 16.09344 0 0
1:15 pm 13:15 Sunny 79 26 61 16 54 54 S 16 26 29.71 1006 10 16.09344 0 0
1:35 pm 13:35 Sunny 81 27 61 16 51 51 S 16 26 29.71 1006 10 16.09344 0 0
1:55 pm 13:55 Sunny 82 28 61 16 48 48 S 20 31 29.71 1006 10 16.09344 0 0
2:15 pm 14:15 Sunny 82 28 63 17 51 51 S 21 33 29.68 1005 10 16.09344 0 0
2:35 pm 14:35 Sunny 84 29 63 17 48 48 S 16 26 29.65 1004 10 16.09344 0 0
2:55 pm 14:55 Sunny 84 29 64 18 51 51 S 17 28 29.65 1004 10 16.09344 0 0
3:15 pm 15:15 Sunny 86 30 64 18 49 49 S 16 26 29.65 1004 10 16.09344 0 0
3:35 pm 15:35 Sunny 84 29 64 18 51 51 S 20 31 29.62 1003 10 16.09344 0 0
3:55 pm 15:55 Sunny 86 30 64 18 49 49 S 18 30 29.62 1003 10 16.09344 0 0
4:15 pm 16:15 Sunny 86 30 64 18 49 49 S 15 24 29.62 1003 10 16.09344 0 0
4:35 pm 16:35 Partly Cloudy 86 30 64 18 49 49 S 23 37 29.62 1003 10 16.09344 0 0
4:55 pm 16:55 Partly Cloudy 86 30 64 18 49 49 S 17 28 29.62 1003 10 16.09344 0 0
5:15 pm 17:15 Sunny 84 29 64 18 51 51 S 18 30 29.62 1003 10 16.09344 0 0
5:35 pm 17:35 Sunny 84 29 64 18 51 51 S 18 30 29.62 1003 10 16.09344 0 0
5:55 pm 17:55 Sunny 82 28 64 18 55 55 S 17 28 29.65 1004 10 16.09344 0 0
6:15 pm 18:15 Sunny 82 28 63 17 51 51 S 16 26 29.65 1004 10 16.09344 0 0
6:35 pm 18:35 Partly Cloudy 81 27 63 17 54 54 S 21 33 29.65 1004 10 16.09344 0 0
6:55 pm 18:55 Sunny 81 27 63 17 54 54 S 18 30 29.65 1004 10 16.09344 0 0
7:15 pm 19:15 Sunny 79 26 64 18 61 61 S 17 28 29.65 1004 10 16.09344 0 0
7:35 pm 19:35 Sunny 79 26 64 18 61 61 SSE 15 24 29.65 1004 10 16.09344 0 0
7:55 pm 19:55 Sunny 77 25 64 18 65 65 S 16 26 29.65 1004 10 16.09344 0 0
8:15 pm 20:15 Sunny 77 25 64 18 65 65 S 16 26 29.65 1004 10 16.09344 0 0
8:35 pm 20:35 Clear 75 24 66 19 74 74 S 15 24 29.68 1005 10 16.09344 0 0
8:55 pm 20:55 Clear 75 24 66 19 74 74 S 17 28 29.68 1005 10 16.09344 0 0
9:15 pm 21:15 Clear 73 23 66 19 78 78 S 14 22 29.68 1005 10 16.09344 0 0
9:35 pm 21:35 Clear 73 23 66 19 78 78 S 15 24 29.68 1005 10 16.09344 0 0
9:55 pm 21:55 Clear 73 23 66 19 78 78 S 12 19 29.68 1005 10 16.09344 0 0
10:15 pm 22:15 Clear 72 22 66 19 83 83 S 18 30 29.68 1005 10 16.09344 0 0
10:35 pm 22:35 Clear 72 22 66 19 83 83 S 18 30 29.68 1005 10 16.09344 0 0
10:55 pm 22:55 Clear 72 22 66 19 83 83 S 15 24 29.71 1006 10 16.09344 0 0
11:15 pm 23:15 Clear 72 22 66 19 83 83 S 16 26 29.68 1005 10 16.09344 0 0
11:35 pm 23:35 Clear 72 22 66 19 83 83 S 17 28 29.71 1006 10 16.09344 0 0
11:55 pm 23:55 Clear 70 21 66 19 88 88 S 16 26 29.74 1007 10 16.09344 0 0

Powered by AerisWeather